Weather History for Jerome, ID

Change the Weather History Date:

Tuesday, December 11, 2012

  Actual Average Record
Temperature  
Mean Temperature 38 °F 27 °F  
Max Temperature 47 °F 35 °F 61 °F (1990)
Min Temperature 28 °F 20 °F -11 °F (1972)
Degree Days  
Heating Degree Days 27 38  
Month to date heating degree days 301 402  
Since 1 July heating degree days 1505 1953  
Cooling Degree Days 0 0  
Month to date cooling degree days 0 0  
Year to date cooling degree days 750 510  
Moisture  
Dew Point 28 °F    
Average Humidity 73    
Maximum Humidity 92    
Minimum Humidity 53    
Precipitation  
Precipitation 0.00 in 0.05 in 0.85 in (1948)
Month to date precipitation 1.14 0.55  
Year to date precipitation 9.95 9.87  
Sea Level Pressure  
Sea Level Pressure 29.91 in    
Wind  
Wind Speed 6 mph (ESE)    
Max Wind Speed 16 mph    
Max Gust Speed 20 mph    
Visibility 10 miles    
Events      
T = Trace of Precipitation, MM = Missing Value Source: NWS Daily Summary

Daily Weather History Graph

Daily Weather History Graph

Search for Another Location

Airport:

Trip Planner

Search our weather history database for the weather conditions in past years. The results will help you decide how hot, cold, wet, or windy it might be!

Date:

Astronomy

Dec. 11, 2012 Rise Set
Actual Time 7:58 AM MST 5:04 PM MST
Civil Twilight 7:26 AM MST 5:36 PM MST
Nautical Twilight 6:50 AM MST 6:11 PM MST
Astronomical Twilight 6:16 AM MST 6:46 PM MST
Moon 5:57 AM MST (12/11) 3:47 PM MST (12/11)
Length of Visible Light 10h 09m
Length of Day
9h 05m
Waning Crescent, 4% of the Moon is Illuminated
Dec 11
Waning Crescent
Dec 13
New
Dec 19
First Quarter
Dec 28
Full
Jan 4
Last Quarter

Hourly Weather History & Observations

Time (MST) Temp. Windchill Dew Point Humidity Pressure Visibility Wind Dir Wind Speed Gust Speed Precip Events Conditions
12:53 AM 32.0 °F 23.6 °F 28.0 °F 85% 30.14 in 10.0 mi WSW 10.4 mph - N/A   Clear
1:53 AM 30.0 °F 23.2 °F 27.0 °F 88% 30.12 in 10.0 mi West 6.9 mph - N/A   Clear
2:53 AM 28.9 °F 21.9 °F 27.0 °F 92% 30.12 in 10.0 mi West 6.9 mph - N/A   Partly Cloudy
3:53 AM 30.0 °F 25.2 °F 28.0 °F 92% 30.11 in 10.0 mi West 4.6 mph - N/A   Mostly Cloudy
4:53 AM 30.0 °F - 27.0 °F 88% 30.09 in 10.0 mi Calm Calm - N/A   Partly Cloudy
5:53 AM 30.9 °F - 27.0 °F 85% 30.08 in 10.0 mi Calm Calm - N/A   Clear
6:53 AM 28.9 °F 22.8 °F 26.1 °F 89% 30.08 in 10.0 mi West 5.8 mph - N/A   Clear
7:53 AM 28.9 °F 23.9 °F 26.1 °F 89% 30.05 in 10.0 mi SE 4.6 mph - N/A   Clear
8:53 AM 30.9 °F - 27.0 °F 85% 30.05 in 10.0 mi Calm Calm - N/A   Clear
9:53 AM 34.0 °F - 28.0 °F 79% 30.02 in 10.0 mi Calm Calm - N/A   Clear
10:53 AM 37.0 °F 34.5 °F 28.9 °F 73% 30.00 in 10.0 mi SSE 3.5 mph - N/A   Clear
11:53 AM 41.0 °F 39.0 °F 28.0 °F 60% 29.95 in 10.0 mi South 3.5 mph - N/A   Clear
12:53 PM 42.1 °F - 28.0 °F 58% 29.90 in 10.0 mi Calm Calm - N/A   Clear
1:53 PM 44.1 °F 39.0 °F 30.0 °F 58% 29.85 in 10.0 mi East 9.2 mph - N/A   Clear
2:53 PM 46.9 °F - 30.0 °F 52% 29.80 in 10.0 mi East 10.4 mph - N/A   Clear
3:53 PM 45.0 °F 41.2 °F 30.0 °F 56% 29.78 in 10.0 mi East 6.9 mph - N/A   Clear
4:53 PM 39.9 °F 34.5 °F 28.9 °F 65% 29.76 in 10.0 mi East 8.1 mph - N/A   Clear
5:53 PM 42.1 °F 37.7 °F 27.0 °F 55% 29.74 in 10.0 mi SE 6.9 mph - N/A   Clear
6:53 PM 36.0 °F 29.0 °F 28.9 °F 76% 29.72 in 10.0 mi ENE 9.2 mph - N/A   Overcast
7:53 PM 37.0 °F 32.4 °F 28.0 °F 70% 29.71 in 10.0 mi East 5.8 mph - N/A   Mostly Cloudy
8:53 PM 39.0 °F 32.8 °F 28.0 °F 65% 29.71 in 10.0 mi West 9.2 mph - N/A   Overcast
9:53 PM 36.0 °F 31.1 °F 28.9 °F 76% 29.69 in 10.0 mi North 5.8 mph - N/A   Clear
10:53 PM 36.0 °F 28.5 °F 28.0 °F 73% 29.66 in 10.0 mi NNE 10.4 mph - N/A   Clear
11:53 PM 36.0 °F 27.5 °F 28.9 °F 76% 29.63 in 10.0 mi NE 12.7 mph - N/A   Scattered Clouds